Location: Unspecified
(0.0000°N, 0.0000°E)
Time: 15:32:46
(UTC+01:00)

SJ-6B - Visible Passes

Search period start: 05 March 2015 00:00
Search period end: 15 March 2015 00:00
Orbit: 515 x 594 km, 97.8° (Epoch: 04 March)

Date Brightness Start Highest point End Pass type
(mag) Time Alt. Az. Time Alt. Az. Time Alt. Az.
05 Mar 6.0 06:26:29 10° NE 06:29:21 20° E 06:32:24 10° SSE visible
05 Mar 6.3 20:00:45 10° SW 20:02:57 14° W 20:04:55 10° WNW visible
06 Mar 6.1 06:23:50 10° ENE 06:26:30 18° E 06:29:22 10° SE visible
06 Mar 6.2 19:57:38 10° SW 20:00:05 16° W 20:02:19 10° WNW visible
07 Mar 6.2 06:21:12 10° ENE 06:23:39 16° E 06:26:19 10° SE visible
07 Mar 6.1 19:54:33 10° SW 19:57:13 17° W 19:59:41 10° WNW visible
08 Mar 6.3 06:18:35 10° ENE 06:20:47 15° E 06:23:13 10° SE visible
08 Mar 6.0 19:51:30 10° SSW 19:54:21 19° W 19:57:00 10° WNW visible
09 Mar 6.4 06:16:01 10° ENE 06:17:54 13° E 06:20:04 10° SE visible
09 Mar 5.8 19:48:28 10° SSW 19:51:27 21° W 19:54:18 10° NW visible
10 Mar 6.5 06:13:31 10° ENE 06:15:02 12° E 06:16:49 10° SE visible
10 Mar 5.6 19:45:26 10° SSW 19:48:34 23° W 19:51:33 10° NW visible
11 Mar 6.6 06:11:11 10° E 06:12:09 11° E 06:13:25 10° ESE visible
11 Mar 5.4 19:42:25 10° SSW 19:45:40 25° W 19:48:47 10° NW visible
12 Mar 5.2 19:39:24 10° SSW 19:42:46 28° WSW 19:46:00 10° NW visible
13 Mar 5.0 19:36:24 10° SSW 19:39:51 31° W 19:43:11 10° NW visible
14 Mar 4.7 19:33:25 10° SSW 19:36:56 34° W 19:40:22 10° NW visible
